Find Starlink 32683

NORAD ID: 62445 Int'l Des: 2024-251 Owner: SPXS Country: US Constellation: starlink operational
LEOCIRCULAR

当前视图

正在加载3D地球...

关于 Starlink 32683

正在加载描述...

即将过境

Passes for default location (London). Set your location on the main map for personalized predictions.

高度历史

Loading altitude history...

两行轨道根数

1 62445U 24251P 26158.83337963 .00063571 00000-0 19298-2 0 9992
2 62445 53.1590 276.7234 0001676 70.2515 86.8874 15.33517974 5851
Epoch: Jun 7, 2026 • Age: 6 hours

当前状态

高度 468.5 km
速度 7.64 km/s
星下点 43.63°N, 36.88°E
发射日期 Dec 29, 2024
运行时间 1.4 years
类型 internet

技术详情

分类 Payload
质量 730.00 kg
干质量 700.00 kg
总质量 730.00 kg
长度 0.30 m
直径 4.10 m
跨度 29.00 m
形状 Box + pan
制造商 SPXS
平台类型 Starlink V2M
阶段状态 In Orbit
所有者/国家 SPXS/US

Most Searched